Date,TemperatureHighF,TemperatureAvgF,TemperatureLowF,DewpointHighF,DewpointAvgF,DewpointLowF,HumidityHigh,HumidityAvg,HumidityLow,PressureMaxIn,PressureMinIn,WindSpeedMaxMPH,WindSpeedAvgMPH,GustSpeedMaxMPH,PrecipitationSumIn
2013-2-1,33.3,21.9,8.8,18.7,11.5,3.0,78,65,51,30.54,30.17,10,2,10,0.00
2013-2-2,50.9,37.1,24.4,37.8,27.7,15.8,80,69,59,30.24,30.10,19,3,19,0.03
2013-2-3,50.2,42.1,34.2,33.3,28.6,24.8,78,60,43,30.30,29.95,18,4,18,0.00
2013-2-4,60.4,47.8,32.2,43.7,34.4,25.3,76,60,48,30.01,29.80,24,3,24,0.00
2013-2-5,61.0,41.7,24.4,42.1,30.5,20.3,88,67,43,30.12,29.93,18,2,18,0.00
2013-2-6,57.7,44.2,27.3,40.1,33.1,22.6,86,66,48,30.18,29.92,12,3,12,0.00
2013-2-7,53.1,47.8,41.0,48.2,42.4,36.9,90,82,72,30.08,29.82,10,2,10,0.22
2013-2-8,48.4,38.1,32.5,37.9,31.7,27.3,88,78,61,30.34,30.08,10,2,10,0.00
2013-2-9,42.3,36.2,32.2,35.1,30.9,27.5,90,81,67,30.25,29.87,15,4,15,0.11
2013-2-10,59.9,48.8,38.1,53.1,38.1,26.6,92,70,39,30.00,29.60,34,9,34,0.11
2013-2-11,50.9,38.7,27.5,33.4,27.6,21.0,78,65,49,30.21,30.00,13,4,13,0.00
2013-2-12,46.2,34.8,22.8,34.0,27.4,18.5,86,75,57,30.18,29.91,5,1,5,0.03
2013-2-13,48.0,37.3,31.8,38.3,32.1,28.6,91,82,63,30.00,29.87,15,3,15,0.22
2013-2-14,54.9,44.3,31.8,38.7,32.3,24.4,80,63,49,30.12,29.88,14,4,14,0.00
2013-2-15,42.6,35.0,22.1,32.0,21.7,12.2,78,59,42,30.35,30.12,17,4,17,0.00
2013-2-16,37.6,30.5,20.8,24.1,20.2,11.8,81,66,52,30.37,30.11,13,-350,13,0.00
2013-2-17,63.1,46.3,29.1,35.8,28.4,19.0,67,51,35,30.11,29.80,12,2,12,0.00
2013-2-18,57.7,47.5,31.6,50.2,38.4,24.1,86,71,56,30.09,29.51,30,6,30,0.06
2013-2-19,42.3,31.7,22.1,24.1,19.2,12.6,77,61,41,30.34,30.09,19,5,19,0.00
2013-2-20,34.5,29.2,22.8,15.8,13.6,10.6,69,52,44,30.36,30.13,8,2,8,0.00
2013-2-21,32.9,30.3,28.2,30.2,25.0,15.8,90,81,52,30.14,29.72,13,4,13,0.00
2013-2-22,34.0,27.3,20.3,31.1,22.4,16.2,91,82,73,30.14,29.81,26,7,26,0.06
2013-2-23,39.7,27.2,16.2,27.9,20.4,12.7,89,76,60,30.12,29.96,13,-353,13,0.19
2013-2-24,53.4,38.2,20.3,36.9,27.9,16.2,87,68,51,30.04,29.85,12,3,12,0.00
2013-2-25,45.5,39.0,34.9,33.3,29.9,27.1,88,71,52,29.92,29.42,20,-171,20,0.46
2013-2-26,35.4,33.0,32.0,32.0,30.2,29.3,91,89,87,29.82,29.33,13,-852,13,0.14
2013-2-27,33.6,32.2,30.9,30.2,28.4,26.8,90,86,80,30.08,29.79,21,-373,21,0.03
2013-2-28,33.6,30.9,28.2,28.2,26.1,24.3,86,82,79,30.23,30.00,15,-211,15,0.00